| time (UTC) | temp C | wind direction | speed KPH | gust KPH | rain 1hr cm | rain 24hr cm | rain mn cm | humidity % | barometer mb |
| 20260503193459 | 10 | 240 | 4.8 | 0.0 | 0.00 | 0.00 | 0.00 | 62 | 1019.0 |
| 20260503191839 | 11 | 250 | 4.8 | 0.0 | 0.00 | 0.00 | 0.00 | 58 | 1019.0 |
| 20260503190338 | 11 | 250 | 4.8 | 0.0 | 0.00 | 0.00 | 0.00 | 58 | 1019.0 |
| 20260503184957 | 12 | 270 | 4.8 | 0.0 | 0.00 | 0.00 | 0.00 | 55 | 1019.0 |
| 20260503183338 | 12 | 270 | 4.8 | 0.0 | 0.00 | 0.00 | 0.00 | 55 | 1019.0 |
| 20260503181838 | 16 | 350 | 3.2 | 0.0 | 0.00 | 0.00 | 0.00 | 34 | 1018.0 |
| 20260503180338 | 16 | 350 | 3.2 | 0.0 | 0.00 | 0.00 | 0.00 | 34 | 1018.0 |
| 20260503174858 | 17 | 40 | 8.0 | 0.0 | 0.00 | 0.00 | 0.00 | 30 | 1018.0 |
| 20260503173403 | 17 | 40 | 8.0 | 0.0 | 0.00 | 0.00 | 0.00 | 30 | 1018.0 |
| 20260503171838 | 18 | 350 | 4.8 | 0.0 | 0.00 | 0.00 | 0.00 | 30 | 1018.0 |
| 20260503170339 | 18 | 350 | 4.8 | 0.0 | 0.00 | 0.00 | 0.00 | 30 | 1018.0 |
| 20260503150338 | 20 | 8.0 | 0.0 | 0.00 | 0.00 | 0.00 | 26 | 1019.0 | |
| 20260503130339 | 20 | 250 | 8.0 | 0.0 | 0.00 | 0.00 | 0.00 | 28 | 1020.0 |
| 20260503110359 | 17 | 100 | 11.3 | 0.0 | 0.00 | 0.00 | 0.00 | 32 | 1021.0 |
| 20260503090359 | 16 | 140 | 9.7 | 0.0 | 0.00 | 0.00 | 0.00 | 42 | 1023.0 |
| 20260503080349 | 15 | 140 | 12.9 | 0.0 | 0.00 | 0.00 | 0.00 | 42 | 1023.0 |
| 20260503071837 | 12 | 170 | 9.7 | 0.0 | 0.00 | 0.00 | 0.00 | 55 | 1023.0 |
| 20260503070339 | 12 | 170 | 9.7 | 0.0 | 0.00 | 0.00 | 0.00 | 55 | 1023.0 |
| 20260503060338 | 11 | 200 | 12.9 | 0.0 | 0.00 | 0.00 | 0.00 | 62 | 1023.0 |
| 20260503054838 | 10 | 200 | 9.7 | 0.0 | 0.00 | 0.00 | 0.00 | 67 | 1022.0 |
| 20260503053338 | 10 | 200 | 9.7 | 0.0 | 0.00 | 0.00 | 0.00 | 67 | 1022.0 |
| 20260503051838 | 7 | 220 | 9.7 | 0.0 | 0.00 | 0.00 | 0.00 | 76 | 1022.0 |
| 20260503050338 | 7 | 220 | 9.7 | 0.0 | 0.00 | 0.00 | 0.00 | 76 | 1022.0 |
| 20260503044838 | 6 | 240 | 4.8 | 0.0 | 0.00 | 0.00 | 0.00 | 81 | 1022.0 |
| 20260503043339 | 6 | 240 | 4.8 | 0.0 | 0.00 | 0.00 | 0.00 | 81 | 1022.0 |
| 20260503041838 | 5 | 3.2 | 0.0 | 0.00 | 0.00 | 0.00 | 81 | 1022.0 | |
| 20260503040401 | 5 | 3.2 | 0.0 | 0.00 | 0.00 | 0.00 | 81 | 1022.0 | |
| 20260503034840 | 5 | 3.2 | 0.0 | 0.00 | 0.00 | 0.00 | 81 | 1021.0 | |
| 20260503033338 | 5 | 3.2 | 0.0 | 0.00 | 0.00 | 0.00 | 81 | 1021.0 | |
| 20260503031838 | 3 | 1.6 | 0.0 | 0.00 | 0.00 | 0.00 | 81 | 1021.0 | |
| 20260503030338 | 3 | 1.6 | 0.0 | 0.00 | 0.00 | 0.00 | 81 | 1021.0 | |
| 20260503024853 | 6 | 200 | 4.8 | 0.0 | 0.00 | 0.00 | 0.00 | 76 | 1021.0 |
| 20260503023339 | 6 | 200 | 4.8 | 0.0 | 0.00 | 0.00 | 0.00 | 76 | 1021.0 |
| 20260503021838 | 6 | 130 | 4.8 | 0.0 | 0.00 | 0.00 | 0.00 | 71 | 1021.0 |
| 20260503020338 | 6 | 130 | 4.8 | 0.0 | 0.00 | 0.00 | 0.00 | 71 | 1021.0 |
| 20260503014838 | 6 | 160 | 8.0 | 0.0 | 0.00 | 0.00 | 0.00 | 71 | 1021.0 |
| 20260503013338 | 6 | 160 | 8.0 | 0.0 | 0.00 | 0.00 | 0.00 | 71 | 1021.0 |
| 20260503011838 | 6 | 150 | 12.9 | 0.0 | 0.00 | 0.00 | 0.00 | 71 | 1021.0 |
| 20260503010338 | 6 | 150 | 12.9 | 0.0 | 0.00 | 0.00 | 0.00 | 71 | 1021.0 |
| 20260503004838 | 7 | 150 | 11.3 | 0.0 | 0.00 | 0.00 | 0.00 | 66 | 1020.0 |
| 20260503003338 | 7 | 150 | 11.3 | 0.0 | 0.00 | 0.00 | 0.00 | 66 | 1020.0 |
| 20260503001838 | 7 | 130 | 12.9 | 0.0 | 0.00 | 0.00 | 0.00 | 71 | 1020.0 |
| 20260503000338 | 7 | 130 | 12.9 | 0.0 | 0.00 | 0.00 | 0.00 | 71 | 1020.0 |
| 20260502234838 | 7 | 140 | 1.6 | 0.0 | 0.00 | 0.00 | 0.00 | 66 | 1020.0 |
| 20260502233338 | 7 | 140 | 1.6 | 0.0 | 0.00 | 0.00 | 0.00 | 66 | 1020.0 |
| 20260502231839 | 6 | 170 | 4.8 | 0.0 | 0.00 | 0.00 | 0.00 | 76 | 1020.0 |
| 20260502230339 | 6 | 170 | 4.8 | 0.0 | 0.00 | 0.00 | 0.00 | 76 | 1020.0 |
| 20260502224838 | 8 | 3.2 | 0.0 | 0.00 | 0.00 | 0.00 | 58 | 1020.0 | |
| 20260502223338 | 8 | 3.2 | 0.0 | 0.00 | 0.00 | 0.00 | 58 | 1020.0 | |
| 20260502221838 | 7 | 150 | 11.3 | 0.0 | 0.00 | 0.00 | 0.00 | 71 | 1020.0 |
| 20260502220338 | 7 | 150 | 11.3 | 0.0 | 0.00 | 0.00 | 0.00 | 71 | 1020.0 |
| 20260502214838 | 8 | 180 | 3.2 | 0.0 | 0.00 | 0.00 | 0.00 | 66 | 1020.0 |
| 20260502213339 | 8 | 180 | 3.2 | 0.0 | 0.00 | 0.00 | 0.00 | 66 | 1020.0 |
| 20260502211838 | 10 | 170 | 1.6 | 0.0 | 0.00 | 0.00 | 0.00 | 58 | 1020.0 |
| 20260502210338 | 10 | 170 | 1.6 | 0.0 | 0.00 | 0.00 | 0.00 | 58 | 1020.0 |
| 20260502204838 | 8 | 160 | 8.0 | 0.0 | 0.00 | 0.00 | 0.00 | 66 | 1020.0 |
| 20260502203338 | 8 | 160 | 8.0 | 0.0 | 0.00 | 0.00 | 0.00 | 66 | 1020.0 |
| 20260502201838 | 12 | 130 | 4.8 | 0.0 | 0.00 | 0.00 | 0.00 | 51 | 1020.0 |
| 20260502200338 | 12 | 130 | 4.8 | 0.0 | 0.00 | 0.00 | 0.00 | 51 | 1020.0 |
| 20260502194838 | 13 | 100 | 9.7 | 0.0 | 0.00 | 0.00 | 0.00 | 44 | 1020.0 |